User: anonymous   Login
Location: Unspecified
(0.0000°N, 0.0000°E)
Time: 19:57:36
(UTC+00:00)
Language:

SMS 2 - Orbit

View from above orbital plane
View from above orbital plane
View from above satellite
View from above satellite

Ground track
Ground track

The orbit data is extracted from the following two-line orbital elements,

1 07648U 75011A   17269.17300150 -.00000284  00000-0  00000+0 0  9995
2 07648  12.6195 320.5264 0012334 195.4520 236.0945  0.99513446104030
Epoch (UTC): 26 September 2017 04:09:07
Eccentricity: 0.0012334
inclination: 12.6195°
perigee height: 35948 km
apogee height: 36052 km
right ascension of ascending node: 320.5264°
argument of perigee: 195.4520°
revolutions per day: 0.99513446
mean anomaly at epoch: 236.0945°
orbit number at epoch: 10403

The dashed part of the orbit path shows where the satellite is in the earth's shadow,  

DLR